Home   Weather   Tamworth   Past weeks

Flag for Australia Past Weather in Tamworth, New South Wales, Australia — Yesterday and Last 2 Weeks

Now
45 °F

Passing clouds.


Feels Like: 41 °F
Forecast: 47 / 64 °F
Wind: 6 mph from Northwest

Location: Tamworth Airport

Current Time: Oct 1, 2016 at 1:26:06 AM

Latest Report: Oct 1, 2016 at 1:00 AM


Visibility: N/A

Pressure: 29.80 "Hg

Humidity: 76%

Dew Point: 37 °F

Location of TamworthLocation

Past Weather in Tamworth — Graph

°F

Tamworth Temperature Yesterday

Maximum temperature yesterday: 59 °F (at 10:00 AM)
Minimum temperature yesterday: 39 °F (at 4:00 AM)
Average temperature yesterday: 51 °F

High & Low Weather Summary for the Past Weeks

 TemperatureHumidityPressure
High70 °F (Sep 24, 2:00 PM)94% (Sep 16, 5:00 AM)30.24 "Hg (Sep 16, 5:00 AM)
Low36 °F (Sep 28, 5:00 AM)32% (Sep 28, 1:00 PM)29.53 "Hg (Sep 29, 1:00 PM)
Average55 °F72%29.91 "Hg
* Reported Sep 16 12:00 AM — Oct 1 12:00 AM, Tamworth, Weather by CustomWeather, © 2016

Note: Actual official high and low records may vary slightly from our data, if they occured in-between our weather recording intervals... More about our weather records

Advertising

Tamworth Weather History for the Previous 24 Hours

Scroll right to see more
 ConditionsComfort  
Time TempWeatherWind HumidityBarometerVisibility
12:00 AM
Sat, Oct 1
46 °FPassing clouds.7 mph76%29.80 "HgN/A
11:00 PM
Fri, Sep 30
46 °FPassing clouds.6 mph71%29.83 "HgN/A
10:00 PM46 °FPassing clouds.6 mph76%29.83 "HgN/A
9:30 PM46 °FPassing clouds.5 mph76%29.80 "HgN/A
9:00 PM48 °FPassing clouds.8 mph71%29.80 "HgN/A
8:00 PM52 °FOvercast.10 mph62%29.77 "HgN/A
7:00 PM52 °FPassing clouds.10 mph62%29.74 "HgN/A
6:00 PM54 °FMostly cloudy.14 mph54%29.74 "HgN/A
5:30 PM55 °FMostly cloudy.22 mph51%29.71 "HgN/A
5:00 PM55 °FMostly cloudy.16 mph51%29.71 "HgN/A
4:00 PM59 °FOvercast.22 mph45%29.68 "HgN/A
3:51 PM57 °FOvercast.18 mph48%29.68 "HgN/A
3:00 PM57 °FOvercast.21 mph44%29.65 "HgN/A
2:00 PM59 °FPartly sunny.24 mph42%29.65 "HgN/A
1:53 PM57 °FPartly sunny.22 mph44%29.65 "HgN/A
1:00 PM57 °FMore clouds than sun.25 mph48%29.68 "HgN/A
12:00 PM57 °FMore clouds than sun.28 mph48%29.68 "HgN/A
11:30 AM55 °FOvercast.24 mph51%29.68 "HgN/A
11:00 AM57 °FMore clouds than sun.25 mph48%29.68 "HgN/A
10:00 AM59 °FOvercast.22 mph48%29.65 "Hg3 mi
9:30 AM55 °FMostly cloudy.18 mph51%29.65 "Hg6 mi
9:00 AM55 °FSunny.20 mph51%29.65 "HgN/A
8:30 AM54 °FScattered clouds.20 mph54%29.68 "Hg6 mi
8:00 AM54 °FSunny.13 mph58%29.65 "HgN/A
7:00 AM48 °FSunny.13 mph66%29.68 "HgN/A
6:30 AM45 °FSunny.13 mph66%29.68 "HgN/A
6:00 AM43 °FSunny.10 mph71%29.68 "HgN/A
5:30 AM41 °FClear.8 mph70%29.68 "HgN/A
5:00 AM41 °FClear.7 mph70%29.68 "HgN/A
4:00 AM39 °FClear.6 mph75%29.68 "HgN/A
3:00 AM43 °FClear.5 mph66%29.68 "HgN/A
2:00 AM43 °FClear.7 mph71%29.68 "HgN/A
1:30 AM45 °FClear.7 mph71%29.71 "HgN/A
1:00 AM45 °FClear.8 mph71%29.71 "HgN/A
Weather by CustomWeather, © 2016

See weather overviewHow to use our weather pages